Regional Weather Roundup
Issued by NWS

Home | Current Version | Previous Version | Text Only | Print | Product List | Glossary Off
Versions: 1 2 3 4 5 6 7 8 9 10 11 12 13 14 15 16 17 18 19 20 21 22 23 24 25 26 27 28 29 30 31 32 33 34 35 36 37 38 39 40 41 42 43 44 45 46 47 48 49 50

467
ASUS43 KMKX 201821
RWRWI

WISCONSIN REGIONAL WEATHER ROUNDUP
NATIONAL WEATHER SERVICE MILWAUKEE/SULLIVAN WI
100 PM CDT SUN AUG 20 2017

NOTE: "FAIR" INDICATES FEW OR NO CLOUDS BELOW 12,000 FEET WITH NO
SIGNIFICANT WEATHER AND/OR OBSTRUCTIONS TO VISIBILITY.

WIZ001-002-006>008-014>016-023>028-201900-
NORTHWEST WISCONSIN

CITY           SKY/WX    TMP DP  RH WIND       PRES   REMARKS
SUPERIOR ARPT    N/A     77  66  70 NW7       29.89R
6HR MIN TEMP:  54; 6HR MAX TEMP:  77;

ASHLAND        PTSUNNY   80  68  66 W15       29.88R HX  83
6HR MIN TEMP:  60; 6HR MAX TEMP:  81;

HAYWARD        CLOUDY    77  66  68 W8        29.93R
6HR MIN TEMP:  62; 6HR MAX TEMP:  78;

SIREN          CLOUDY    77  66  68 W8        29.93S
6HR MIN TEMP:  63; 6HR MAX TEMP:  78;

CUMBERLAND     CLOUDY    75  64  69 SW10      29.94S
RICE LAKE      CLOUDY    78  67  69 S9        29.94S HX  80
6HR MIN TEMP:  60; 6HR MAX TEMP:  78;

CHETEK         CLOUDY    75  67  76 SW3       29.93F
6HR MIN TEMP:  60; 6HR MAX TEMP:  76;

LADYSMITH      MOSUNNY   78  66  67 SW10      29.95F
6HR MIN TEMP:  61; 6HR MAX TEMP:  78;

EAU CLAIRE     SUNNY     81  66  60 SW13      29.93F HX  83
6HR MIN TEMP:  61; 6HR MAX TEMP:  81;

MENOMONIE      MOSUNNY   81  68  63 S9        29.94S HX  84
6HR MIN TEMP:  61; 6HR MAX TEMP:  81;

NEW RICHMOND   MOSUNNY   79  66  64 SW6       29.94S HX  81
6HR MIN TEMP:  63; 6HR MAX TEMP:  80;

OSCEOLA        CLOUDY    79  68  68 W7        29.96S HX  81
6HR MIN TEMP:  64; 6HR MAX TEMP:  80;

$$

WIZ003>005-009-010-017-018-201900-
NORTH CENTRAL WISCONSIN

CITY           SKY/WX    TMP DP  RH WIND       PRES   REMARKS
MANITOWISH WTR PTSUNNY   79  67  65 SW14G20   29.92F HX  82
6HR MIN TEMP:  58; 6HR MAX TEMP:  79;

ARBOR VITAE    MOSUNNY   80  66  62 SW10G18   29.93F HX  82
6HR MIN TEMP:  61; 6HR MAX TEMP:  80;

WOODRUFF       MOSUNNY   80  66  62 SW10G18   29.93F HX  82
6HR MIN TEMP:  61; 6HR MAX TEMP:  80;

RHINELANDER    PTSUNNY   78  65  63 SW17      29.97F HX  80
6HR MIN TEMP:  61; 6HR MAX TEMP:  79;

EAGLE RIVER    MOSUNNY   77  61  58 SW13G21   29.94F
6HR MIN TEMP:  58; 6HR MAX TEMP:  78;

LAND O LAKES   MOSUNNY   78  62  58 SW13G21   29.95F HX  80
6HR MIN TEMP:  52; 6HR MAX TEMP:  78;

PHILLIPS       MOSUNNY   77  67  69 SW12G18   29.93S
6HR MIN TEMP:  59; 6HR MAX TEMP:  78;

TOMAHAWK         N/A     78  65  64 S3        29.96F HX  80
6HR MIN TEMP:  55; 6HR MAX TEMP:  78;

MEDFORD        CLOUDY    75  66  74 SW10      29.97F
6HR MIN TEMP:  57; 6HR MAX TEMP:  75;

MERRILL        NOT AVBL
$$

WIZ029-030-035-036-043>047-201900-
CENTRAL WISCONSIN

CITY           SKY/WX    TMP DP  RH WIND       PRES   REMARKS
WAUSAU         CLOUDY    77  66  68 S9G20     29.96F
6HR MIN TEMP:  57; 6HR MAX TEMP:  77;

MOSINEE        PTSUNNY   75  66  73 S10G18    29.99F
MARSHFIELD     CLOUDY    78  64  61 SW12      29.97F HX  80
6HR MIN TEMP:  58; 6HR MAX TEMP:  78;

STEVENS POINT  CLOUDY    76  64  67 S10G17    29.98F
6HR MIN TEMP:  54; 6HR MAX TEMP:  76;

WAUPACA        CLOUDY    80  65  61 S10G16    29.98F HX  82
6HR MIN TEMP:  58; 6HR MAX TEMP:  80;

WAUTOMA        CLOUDY    78  68  71 SW9       29.99F HX  80
6HR MIN TEMP:  55; 6HR MAX TEMP:  78;

WISC RAPIDS    CLOUDY    77  67  71 SW9       29.99F
6HR MIN TEMP:  60; 6HR MAX TEMP:  77;

CAMP DOUGLAS   CLOUDY    79  66  65 SW8       29.99S HX  81
$$

WIZ011>013-019>022-031-037>040-048>050-201900-
NORTHEAST WISCONSIN

CITY           SKY/WX    TMP DP  RH WIND       PRES   REMARKS
ANTIGO         CLOUDY    76  65  70 SW14G20   29.99F
6HR MIN TEMP:  58; 6HR MAX TEMP:  76;

SHAWANO        MOSUNNY   79  64  59 S8        29.97F HX  81
6HR MIN TEMP:  61; 6HR MAX TEMP:  79;

OCONTO         CLOUDY    79  65  63 S7        29.97F HX  81
6HR MIN TEMP:  57; 6HR MAX TEMP:  79;

STURGEON BAY   CLOUDY    77  64  64 S14       29.99F
6HR MIN TEMP:  65; 6HR MAX TEMP:  77;

GREEN BAY      CLOUDY    77  67  71 S7        29.99F
6HR MIN TEMP:  60; 6HR MAX TEMP:  77;

MANITOWOC      CLOUDY    79  63  57 S6        30.01F HX  80
6HR MIN TEMP:  63; 6HR MAX TEMP:  79;

APPLETON       CLOUDY    79  61  53 SW13      30.01S HX  80
CLINTONVILLE   CLOUDY    79  63  57 S10       29.98F HX  80
OSHKOSH        PTSUNNY   77  66  68 S8        29.99F
6HR MIN TEMP:  63; 6HR MAX TEMP:  78;

$$

WIZ032>034-041-042-053>061-201900-
SOUTHWEST WISCONSIN

CITY           SKY/WX    TMP DP  RH WIND       PRES   REMARKS
LA CROSSE      CLOUDY    81  67  62 S7        29.96F HX  83
6HR MIN TEMP:  65; 6HR MAX TEMP:  81;

SPARTA         CLOUDY    75  65  70 SW3       29.99S
6HR MIN TEMP:  53; 6HR MAX TEMP:  75;

VIROQUA        CLOUDY    73  67  79 CALM      30.01F
6HR MIN TEMP:  61; 6HR MAX TEMP:  74;

BOSCOBEL       CLOUDY    77  65  66 SW5       29.99F
6HR MIN TEMP:  61; 6HR MAX TEMP:  77;

PRAIRIE DU CHI CLOUDY    76  62  61 CALM      29.98F
6HR MIN TEMP:  63; 6HR MAX TEMP:  76;

PLATTEVILLE    CLOUDY    74  67  79 CALM      30.02S
6HR MIN TEMP:  63; 6HR MAX TEMP:  74;

$$

WIZ056-057-062-063-064-067-068-201900-
SOUTH CENTRAL WISCONSIN

CITY           SKY/WX    TMP DP  RH WIND       PRES   REMARKS
REEDSBURG      CLOUDY    77  66  69 SW7       30.00F
6HR MIN TEMP:  58; 6HR MAX TEMP:  77;

BARABOO/DELLS  CLOUDY    76  64  65 SW6       30.01S
6HR MIN TEMP:  62; 6HR MAX TEMP:  76;

LONE ROCK      CLOUDY    78  66  66 W8        30.00F HX  80
6HR MIN TEMP:  60; 6HR MAX TEMP:  78;

MINERAL POINT  CLOUDY    77  68  73 SW6       30.02F
MADISON        CLOUDY    77  66  68 VRB5      30.01F
6HR MIN TEMP:  62; 6HR MAX TEMP:  77;

MIDDLETON      CLOUDY    80  66  62 W9        30.02F HX  82
6HR MIN TEMP:  62; 6HR MAX TEMP:  80;

WATERTOWN      CLOUDY    78  68  71 SW10      30.02R HX  80
6HR MIN TEMP:  59; 6HR MAX TEMP:  79;

MONROE         CLOUDY    75  63  64 W3        30.03F
JANESVILLE     PTSUNNY   81  61  50 SW8       30.02F HX  81
$$

WIZ051-052-058>065-066-070>072-201900-
SOUTHEAST WISCONSIN

CITY           SKY/WX    TMP DP  RH WIND       PRES   REMARKS
MILWAUKEE      CLOUDY    82  64  54 S9        30.02F HX  83
6HR MIN TEMP:  65; 6HR MAX TEMP:  83;

WAUKESHA       SUNNY     79  64  61 S8        30.03F HX  81
MILWAUKEE/TIMM SUNNY     81  61  50 SW10      30.03F HX  81
RACINE         CLOUDY    79  67  66 S8        30.04F HX  81
6HR MIN TEMP:  65; 6HR MAX TEMP:  80;

KENOSHA        CLOUDY    83  66  56 S8        30.03F HX  85
6HR MIN TEMP:  62; 6HR MAX TEMP:  83;

FOND DU LAC    PTSUNNY   78  64  61 S10       30.00F HX  80
6HR MIN TEMP:  62; 6HR MAX TEMP:  78;

SHEBOYGAN      CLOUDY    80  67  64 SW8       30.01F HX  82
6HR MIN TEMP:  61; 6HR MAX TEMP:  80;

WEST BEND      CLOUDY    79  66  65 SW9       30.02F HX  81
JUNEAU         CLOUDY    77  67  71 S6        30.03S
6HR MIN TEMP:  60; 6HR MAX TEMP:  77;

$$

LSZ147-162-201900-
LAKE SUPERIOR

STATION/POSITION TIME  TEMP    WIND        PRES    WAVE
                       AIR SEA DIR/SP/G            HT/PER
                 (UTC) (F)     (DEG/KT/KT) (MB)    (FT/S)
W MID LAKE BUOY  1750   65 60  220/ 10/ 10 1010.1F   1/ 3
DEVILS ISLAND    1800   69     250/ 17/ 21 1010.7F
SAXON HARBOR     1740   81     220/  4/ 13 1010.8S
$$

LMZ867-665-643>646-201900-
LAKE MICHIGAN

STATION/POSITION TIME  TEMP    WIND        PRES    WAVE
                       AIR SEA DIR/SP/G            HT/PER
                 (UTC) (F)     (DEG/KT/KT) (MB)    (FT/S)
S GREEN BAY BUOY 1800   74 72  200/ 12/ 14 1014.9
N MID LAKE BUOY  1750   69 67  190/ 14/ 16 1016.1F   2/ 4
NORTHPORT PIER   1740   74     150/  9/ 14 1014.9F
KEWAUNEE LAKESHO 1



USA.gov is the U.S. government's official web portal to all federal, state and local government web resources and services.